Time,TemperatureF,DewpointF,PressureIn,WindDirection,WindDirectionDegrees,WindSpeedMPH,WindSpeedGustMPH,Humidity,HourlyPrecipIn,Conditions,Clouds,dailyrainin,SoftwareType,DateUTC
2013-01-18 00:00:00,31.6,28.2,30.23,NW,315,0.0,0.0,87,0.01,,,0.00,pywws,2013-01-18 05:00:00,
2013-01-18 00:04:00,31.6,27.9,30.23,North,0,0.0,0.0,86,0.01,,,0.00,pywws,2013-01-18 05:04:00,
2013-01-18 00:05:00,31.6,27.9,30.23,NE,45,0.0,0.0,86,0.01,,,0.00,pywws,2013-01-18 05:05:00,
2013-01-18 00:06:00,31.6,27.9,30.23,SW,225,0.0,0.0,86,0.01,,,0.00,pywws,2013-01-18 05:06:00,
2013-01-18 00:11:00,31.5,27.8,30.24,NE,45,0.0,0.0,86,0.00,,,0.00,pywws,2013-01-18 05:11:00,
2013-01-18 00:17:00,31.5,27.5,30.24,NW,315,0.0,0.0,85,0.00,,,0.00,pywws,2013-01-18 05:17:00,
2013-01-18 00:22:00,31.3,27.3,30.25,East,90,0.0,0.0,85,0.00,,,0.00,pywws,2013-01-18 05:22:00,
2013-01-18 00:28:00,31.3,27.0,30.25,East,90,0.0,0.0,84,0.00,,,0.00,pywws,2013-01-18 05:28:00,
2013-01-18 00:34:00,31.1,26.8,30.25,North,0,0.0,0.0,84,0.00,,,0.00,pywws,2013-01-18 05:34:00,
2013-01-18 00:39:00,31.1,26.8,30.25,NW,315,0.0,0.0,84,0.00,,,0.00,pywws,2013-01-18 05:39:00,
2013-01-18 00:45:00,30.9,26.4,30.25,East,90,0.0,0.0,83,0.00,,,0.00,pywws,2013-01-18 05:45:00,
2013-01-18 00:50:00,30.9,26.1,30.26,NE,45,0.0,0.0,82,0.00,,,0.00,pywws,2013-01-18 05:50:00,
2013-01-18 00:57:00,30.9,25.8,30.26,West,270,0.0,0.0,81,0.00,,,0.00,pywws,2013-01-18 05:57:00,
2013-01-18 01:02:00,30.7,25.6,30.26,NW,315,0.0,0.0,81,0.00,,,0.00,pywws,2013-01-18 06:02:00,
2013-01-18 01:08:00,30.6,25.7,30.27,SW,225,0.0,0.0,82,0.00,,,0.00,pywws,2013-01-18 06:08:00,
2013-01-18 01:14:00,30.4,25.6,30.27,NW,315,0.0,0.0,82,0.00,,,0.00,pywws,2013-01-18 06:14:00,
2013-01-18 01:19:00,30.2,25.4,30.27,East,90,0.0,0.0,82,0.00,,,0.00,pywws,2013-01-18 06:19:00,
2013-01-18 01:25:00,30.2,25.4,30.27,North,0,0.0,0.0,82,0.00,,,0.00,pywws,2013-01-18 06:25:00,
2013-01-18 01:30:00,30.2,25.4,30.27,East,90,0.0,0.0,82,0.00,,,0.00,pywws,2013-01-18 06:30:00,
2013-01-18 01:36:00,30.0,25.5,30.27,NE,45,0.0,0.0,83,0.00,,,0.00,pywws,2013-01-18 06:36:00,
2013-01-18 01:42:00,29.8,25.3,30.27,South,180,0.0,0.0,83,0.00,,,0.00,pywws,2013-01-18 06:42:00,
2013-01-18 01:48:00,29.7,25.1,30.28,NW,315,0.0,0.0,83,0.00,,,0.00,pywws,2013-01-18 06:48:00,
2013-01-18 01:54:00,29.7,25.1,30.28,NNW,338,0.0,0.0,83,0.00,,,0.00,pywws,2013-01-18 06:54:00,
2013-01-18 01:59:00,29.8,25.3,30.29,NE,45,0.0,0.0,83,0.00,,,0.00,pywws,2013-01-18 06:59:00,
2013-01-18 02:05:00,29.7,25.1,30.29,NNW,338,0.0,0.0,83,0.00,,,0.00,pywws,2013-01-18 07:05:00,
2013-01-18 02:10:00,29.7,24.9,30.29,North,0,0.0,0.0,82,0.00,,,0.00,pywws,2013-01-18 07:10:00,
2013-01-18 02:16:00,29.7,24.9,30.29,West,270,0.0,0.0,82,0.00,,,0.00,pywws,2013-01-18 07:16:00,
2013-01-18 02:22:00,29.7,24.9,30.30,North,0,0.0,0.0,82,0.00,,,0.00,pywws,2013-01-18 07:22:00,
2013-01-18 02:27:00,29.5,24.4,30.29,West,270,0.0,0.0,81,0.00,,,0.00,pywws,2013-01-18 07:27:00,
2013-01-18 02:33:00,29.5,24.4,30.30,NE,45,0.0,0.0,81,0.00,,,0.00,pywws,2013-01-18 07:33:00,
2013-01-18 02:38:00,29.5,24.1,30.30,East,90,0.0,0.0,80,0.00,,,0.00,pywws,2013-01-18 07:38:00,
2013-01-18 02:44:00,29.3,23.9,30.30,West,270,0.0,0.0,80,0.00,,,0.00,pywws,2013-01-18 07:44:00,
2013-01-18 02:50:00,29.1,24.0,30.30,NE,45,0.0,0.0,81,0.00,,,0.00,pywws,2013-01-18 07:50:00,
2013-01-18 02:55:00,29.1,24.0,30.31,NW,315,0.0,0.0,81,0.00,,,0.00,pywws,2013-01-18 07:55:00,
2013-01-18 03:01:00,29.1,24.0,30.30,West,270,0.0,0.0,81,0.00,,,0.00,pywws,2013-01-18 08:01:00,
2013-01-18 03:06:00,29.1,24.0,30.31,West,270,0.0,0.0,81,0.00,,,0.00,pywws,2013-01-18 08:06:00,
2013-01-18 03:12:00,29.3,23.9,30.30,SW,225,0.0,0.0,80,0.00,,,0.00,pywws,2013-01-18 08:12:00,
2013-01-18 03:18:00,29.3,23.9,30.30,NE,45,0.0,0.0,80,0.00,,,0.00,pywws,2013-01-18 08:18:00,
2013-01-18 03:23:00,29.1,23.7,30.30,SE,135,0.0,0.0,80,0.00,,,0.00,pywws,2013-01-18 08:23:00,
2013-01-18 03:29:00,29.1,23.7,30.30,NE,45,0.0,0.0,80,0.00,,,0.00,pywws,2013-01-18 08:29:00,
2013-01-18 03:34:00,28.9,23.6,30.31,SE,135,0.0,0.0,80,0.00,,,0.00,pywws,2013-01-18 08:34:00,
2013-01-18 03:40:00,28.9,23.6,30.31,NE,45,0.0,0.0,80,0.00,,,0.00,pywws,2013-01-18 08:40:00,
2013-01-18 03:46:00,28.9,23.6,30.31,East,90,0.0,0.0,80,0.00,,,0.00,pywws,2013-01-18 08:46:00,
2013-01-18 03:51:00,28.8,23.4,30.31,SW,225,0.0,0.0,80,0.00,,,0.00,pywws,2013-01-18 08:51:00,
2013-01-18 03:57:00,28.8,23.4,30.30,NW,315,0.0,0.0,80,0.00,,,0.00,pywws,2013-01-18 08:57:00,
2013-01-18 04:03:00,28.6,23.2,30.30,NE,45,0.0,0.0,80,0.00,,,0.00,pywws,2013-01-18 09:03:00,
2013-01-18 04:09:00,28.4,23.3,30.31,NE,45,0.0,0.0,81,0.00,,,0.00,pywws,2013-01-18 09:09:00,
2013-01-18 04:14:00,28.4,23.3,30.30,NNE,22,0.0,0.0,81,0.00,,,0.00,pywws,2013-01-18 09:14:00,
2013-01-18 04:20:00,28.4,23.3,30.31,North,0,0.0,0.0,81,0.00,,,0.00,pywws,2013-01-18 09:20:00,
2013-01-18 04:26:00,28.4,23.3,30.30,NE,45,0.0,0.0,81,0.00,,,0.00,pywws,2013-01-18 09:26:00,
2013-01-18 04:31:00,28.6,23.5,30.30,NW,315,0.0,0.0,81,0.00,,,0.00,pywws,2013-01-18 09:31:00,
2013-01-18 04:37:00,28.4,23.3,30.31,NW,315,0.0,0.0,81,0.00,,,0.00,pywws,2013-01-18 09:37:00,
2013-01-18 04:42:00,28.2,22.0,30.31,North,0,0.0,0.0,77,0.00,,,0.00,pywws,2013-01-18 09:42:00,
2013-01-18 04:48:00,28.0,22.1,30.30,NW,315,0.0,0.0,78,0.00,,,0.00,pywws,2013-01-18 09:48:00,
2013-01-18 04:54:00,28.0,22.1,30.31,NE,45,0.0,0.0,78,0.00,,,0.00,pywws,2013-01-18 09:54:00,
2013-01-18 04:59:00,28.0,22.1,30.31,ENE,68,0.0,0.0,78,0.00,,,0.00,pywws,2013-01-18 09:59:00,
2013-01-18 05:05:00,28.0,22.1,30.31,ENE,68,0.0,0.0,78,0.00,,,0.00,pywws,2013-01-18 10:05:00,
2013-01-18 05:10:00,27.7,21.7,30.31,West,270,0.0,0.0,78,0.00,,,0.00,pywws,2013-01-18 10:10:00,
2013-01-18 05:16:00,27.7,21.7,30.31,South,180,0.0,0.0,78,0.00,,,0.00,pywws,2013-01-18 10:16:00,
2013-01-18 05:22:00,27.7,21.7,30.31,North,0,0.0,0.0,78,0.00,,,0.00,pywws,2013-01-18 10:22:00,
2013-01-18 05:27:00,27.7,21.7,30.31,NW,315,0.0,0.0,78,0.00,,,0.00,pywws,2013-01-18 10:27:00,
2013-01-18 05:33:00,27.7,21.7,30.31,NW,315,0.0,0.0,78,0.00,,,0.00,pywws,2013-01-18 10:33:00,
2013-01-18 05:38:00,28.0,21.8,30.31,NW,315,0.0,0.0,77,0.00,,,0.00,pywws,2013-01-18 10:38:00,
2013-01-18 05:44:00,28.0,21.8,30.31,NW,315,0.0,0.0,77,0.00,,,0.00,pywws,2013-01-18 10:44:00,
2013-01-18 05:51:00,28.0,21.5,30.32,NW,315,0.0,0.0,76,0.00,,,0.00,pywws,2013-01-18 10:51:00,
2013-01-18 05:57:00,28.0,21.5,30.32,NW,315,0.0,0.0,76,0.00,,,0.00,pywws,2013-01-18 10:57:00,
2013-01-18 06:02:00,28.2,21.3,30.32,NW,315,0.0,0.0,75,0.00,,,0.00,pywws,2013-01-18 11:02:00,
2013-01-18 06:08:00,28.2,21.3,30.32,NW,315,0.0,0.0,75,0.00,,,0.00,pywws,2013-01-18 11:08:00,
2013-01-18 06:12:00,28.0,21.2,30.32,NW,315,0.0,0.0,75,0.00,,,0.00,pywws,2013-01-18 11:12:00,
2013-01-18 06:17:00,28.2,21.3,30.32,NW,315,0.0,0.0,75,0.00,,,0.00,pywws,2013-01-18 11:17:00,
2013-01-18 06:27:00,28.0,21.2,30.33,NW,315,0.0,0.0,75,0.00,,,0.00,pywws,2013-01-18 11:27:00,
2013-01-18 06:34:00,28.0,21.5,30.32,NW,315,0.0,0.0,76,0.00,,,0.00,pywws,2013-01-18 11:34:00,
2013-01-18 06:41:00,27.9,21.3,30.33,NW,315,0.0,0.0,76,0.00,,,0.00,pywws,2013-01-18 11:41:00,
2013-01-18 06:48:00,28.0,21.5,30.33,NW,315,0.0,0.0,76,0.00,,,0.00,pywws,2013-01-18 11:48:00,
2013-01-18 06:54:00,27.9,21.3,30.33,NW,315,0.0,0.0,76,0.00,,,0.00,pywws,2013-01-18 11:54:00,
2013-01-18 07:01:00,27.9,21.3,30.34,NW,315,0.0,0.0,76,0.00,,,0.00,pywws,2013-01-18 12:01:00,
2013-01-18 07:07:00,27.9,21.3,30.34,NW,315,0.0,0.0,76,0.00,,,0.00,pywws,2013-01-18 12:07:00,
2013-01-18 07:14:00,27.7,21.4,30.35,NW,315,0.0,0.0,77,0.00,,,0.00,pywws,2013-01-18 12:14:00,
2013-01-18 07:19:00,27.7,21.4,30.35,NW,315,0.0,0.0,77,0.00,,,0.00,pywws,2013-01-18 12:19:00,
2013-01-18 07:25:00,27.9,21.6,30.35,NW,315,0.0,0.0,77,0.00,,,0.00,pywws,2013-01-18 12:25:00,
2013-01-18 07:30:00,27.7,21.4,30.36,NW,315,0.0,0.0,77,0.00,,,0.00,pywws,2013-01-18 12:30:00,
2013-01-18 07:37:00,27.5,21.3,30.36,NW,315,0.0,0.0,77,0.00,,,0.00,pywws,2013-01-18 12:37:00,
2013-01-18 07:42:00,27.5,21.6,30.37,NW,315,0.0,0.0,78,0.00,,,0.00,pywws,2013-01-18 12:42:00,
2013-01-18 07:48:00,27.3,21.4,30.37,NW,315,0.0,0.0,78,0.00,,,0.00,pywws,2013-01-18 12:48:00,
2013-01-18 07:54:00,27.3,21.4,30.37,NW,315,0.0,0.0,78,0.00,,,0.00,pywws,2013-01-18 12:54:00,
2013-01-18 07:59:00,27.3,21.7,30.37,NW,315,0.0,0.0,79,0.00,,,0.00,pywws,2013-01-18 12:59:00,
2013-01-18 08:05:00,27.7,22.0,30.38,NW,315,0.0,0.0,79,0.00,,,0.00,pywws,2013-01-18 13:05:00,
2013-01-18 08:10:00,29.1,24.6,30.38,NW,315,0.0,0.0,83,0.00,,,0.00,pywws,2013-01-18 13:10:00,
2013-01-18 08:16:00,30.7,25.6,30.39,NW,315,0.0,0.0,81,0.00,,,0.00,pywws,2013-01-18 13:16:00,
2013-01-18 08:22:00,32.2,26.1,30.39,NW,315,0.0,0.0,78,0.00,,,0.00,pywws,2013-01-18 13:22:00,
2013-01-18 08:27:00,32.9,25.9,30.40,East,90,0.0,0.0,75,0.00,,,0.00,pywws,2013-01-18 13:27:00,
2013-01-18 08:33:00,33.3,25.6,30.40,SE,135,0.0,0.0,73,0.00,,,0.00,pywws,2013-01-18 13:33:00,
2013-01-18 08:38:00,33.6,24.9,30.40,NW,315,0.0,0.0,70,0.00,,,0.00,pywws,2013-01-18 13:38:00,
2013-01-18 08:44:00,33.6,24.6,30.41,North,0,0.0,0.0,69,0.00,,,0.00,pywws,2013-01-18 13:44:00,
2013-01-18 08:50:00,33.8,24.4,30.41,NE,45,0.0,0.0,68,0.00,,,0.00,pywws,2013-01-18 13:50:00,
2013-01-18 08:55:00,34.0,23.8,30.42,NE,45,0.0,0.0,66,0.00,,,0.00,pywws,2013-01-18 13:55:00,
2013-01-18 09:01:00,34.0,23.8,30.42,NE,45,0.0,0.0,66,0.00,,,0.00,pywws,2013-01-18 14:01:00,
2013-01-18 09:06:00,34.0,23.8,30.42,NE,45,0.0,0.0,66,0.00,,,0.00,pywws,2013-01-18 14:06:00,
2013-01-18 09:12:00,34.3,23.8,30.43,West,270,0.0,0.0,65,0.00,,,0.00,pywws,2013-01-18 14:12:00,
2013-01-18 09:18:00,34.5,24.0,30.43,North,0,0.0,0.0,65,0.00,,,0.00,pywws,2013-01-18 14:18:00,
2013-01-18 09:23:00,34.7,23.8,30.43,North,0,0.0,0.0,64,0.00,,,0.00,pywws,2013-01-18 14:23:00,
2013-01-18 09:29:00,35.1,24.1,30.43,North,0,0.0,0.0,64,0.00,,,0.00,pywws,2013-01-18 14:29:00,
2013-01-18 09:34:00,35.1,23.8,30.44,NW,315,1.6,3.8,63,0.00,,,0.00,pywws,2013-01-18 14:34:00,
2013-01-18 09:40:00,35.2,23.9,30.44,NE,45,2.2,6.0,63,0.00,,,0.00,pywws,2013-01-18 14:40:00,
2013-01-18 09:46:00,35.4,24.1,30.45,NW,315,0.7,1.6,63,0.00,,,0.00,pywws,2013-01-18 14:46:00,
2013-01-18 09:52:00,36.1,24.4,30.45,NE,45,0.7,2.2,62,0.00,,,0.00,pywws,2013-01-18 14:52:00,
2013-01-18 09:58:00,36.3,24.2,30.45,NW,315,1.6,2.2,61,0.00,,,0.00,pywws,2013-01-18 14:58:00,
2013-01-18 10:03:00,36.9,24.7,30.46,NE,45,0.7,1.6,61,0.00,,,0.00,pywws,2013-01-18 15:03:00,
2013-01-18 10:09:00,37.6,26.9,30.46,NW,315,1.6,3.1,65,0.00,,,0.00,pywws,2013-01-18 15:09:00,
2013-01-18 10:14:00,37.2,24.2,30.47,NE,45,3.8,5.4,59,0.00,,,0.00,pywws,2013-01-18 15:14:00,
2013-01-18 10:20:00,37.6,26.1,30.47,NE,45,3.1,5.4,63,0.00,,,0.00,pywws,2013-01-18 15:20:00,
2013-01-18 10:26:00,37.6,26.9,30.47,East,90,3.1,4.5,65,0.00,,,0.00,pywws,2013-01-18 15:26:00,
2013-01-18 10:31:00,38.5,26.6,30.47,South,180,0.7,3.8,62,0.00,,,0.00,pywws,2013-01-18 15:31:00,
2013-01-18 10:37:00,39.4,27.5,30.47,North,0,0.0,1.6,62,0.00,,,0.00,pywws,2013-01-18 15:37:00,
2013-01-18 10:42:00,40.8,27.6,30.47,South,180,0.0,0.7,59,0.00,,,0.00,pywws,2013-01-18 15:42:00,
2013-01-18 10:48:00,41.5,27.0,30.47,West,270,1.6,2.2,56,0.00,,,0.00,pywws,2013-01-18 15:48:00,
2013-01-18 10:54:00,42.3,27.3,30.47,SE,135,0.0,0.7,55,0.00,,,0.00,pywws,2013-01-18 15:54:00,
2013-01-18 10:59:00,43.0,28.4,30.47,NE,45,3.1,5.4,56,0.00,,,0.00,pywws,2013-01-18 15:59:00,
2013-01-18 11:05:00,41.9,25.6,30.47,North,0,0.7,3.1,52,0.00,,,0.00,pywws,2013-01-18 16:05:00,
2013-01-18 11:10:00,41.7,25.9,30.46,West,270,0.7,2.2,53,0.00,,,0.00,pywws,2013-01-18 16:10:00,
2013-01-18 11:16:00,42.8,26.9,30.46,NW,315,0.0,1.6,53,0.00,,,0.00,pywws,2013-01-18 16:16:00,
2013-01-18 11:22:00,44.2,28.2,30.46,West,270,3.1,5.4,53,0.00,,,0.00,pywws,2013-01-18 16:22:00,
2013-01-18 11:27:00,43.3,26.4,30.46,NE,45,0.7,1.6,51,0.00,,,0.00,pywws,2013-01-18 16:27:00,
2013-01-18 11:33:00,44.4,27.9,30.46,North,0,1.6,3.1,52,0.00,,,0.00,pywws,2013-01-18 16:33:00,
2013-01-18 11:38:00,44.8,25.3,30.46,WSW,248,3.8,7.6,46,0.00,,,0.00,pywws,2013-01-18 16:38:00,
2013-01-18 11:44:00,43.9,23.4,30.45,NE,45,1.6,3.8,44,0.00,,,0.00,pywws,2013-01-18 16:44:00,
2013-01-18 11:50:00,44.6,22.9,30.46,North,0,0.7,2.2,42,0.00,,,0.00,pywws,2013-01-18 16:50:00,
2013-01-18 11:55:00,45.0,22.7,30.45,NW,315,0.7,0.7,41,0.00,,,0.00,pywws,2013-01-18 16:55:00,
2013-01-18 12:01:00,45.1,22.9,30.45,SE,135,2.2,3.8,41,0.00,,,0.00,pywws,2013-01-18 17:01:00,
2013-01-18 12:06:00,46.4,22.8,30.44,SW,225,3.1,5.4,39,0.00,,,0.00,pywws,2013-01-18 17:06:00,
2013-01-18 12:12:00,45.7,17.5,30.44,NE,45,3.8,5.4,32,0.00,,,0.00,pywws,2013-01-18 17:12:00,
2013-01-18 12:18:00,45.3,22.4,30.44,North,0,0.0,0.7,40,0.00,,,0.00,pywws,2013-01-18 17:18:00,
2013-01-18 12:23:00,47.8,22.8,30.44,North,0,3.1,3.8,37,0.00,,,0.00,pywws,2013-01-18 17:23:00,
2013-01-18 12:29:00,47.8,22.2,30.43,NE,45,1.6,3.8,36,0.00,,,0.00,pywws,2013-01-18 17:29:00,
2013-01-18 12:34:00,45.9,17.0,30.43,SW,225,1.6,2.2,31,0.00,,,0.00,pywws,2013-01-18 17:34:00,
2013-01-18 12:40:00,46.9,17.9,30.43,South,180,5.4,8.3,31,0.00,,,0.00,pywws,2013-01-18 17:40:00,
2013-01-18 12:46:00,45.9,15.4,30.42,NW,315,0.0,0.7,29,0.00,,,0.00,pywws,2013-01-18 17:46:00,
2013-01-18 12:51:00,48.4,22.0,30.42,SW,225,2.2,3.1,35,0.00,,,0.00,pywws,2013-01-18 17:51:00,
2013-01-18 12:57:00,49.5,18.5,30.43,NW,315,0.0,1.6,29,0.00,,,0.00,pywws,2013-01-18 17:57:00,
2013-01-18 13:02:00,49.5,16.9,30.42,NE,45,0.7,1.6,27,0.00,,,0.00,pywws,2013-01-18 18:02:00,
2013-01-18 13:08:00,49.3,16.7,30.42,South,180,3.8,6.0,27,0.00,,,0.00,pywws,2013-01-18 18:08:00,
2013-01-18 13:14:00,47.8,17.1,30.42,SW,225,1.6,3.1,29,0.00,,,0.00,pywws,2013-01-18 18:14:00,
2013-01-18 13:19:00,50.7,19.6,30.42,SW,225,4.5,7.6,29,0.00,,,0.00,pywws,2013-01-18 18:19:00,
2013-01-18 13:25:00,49.6,17.0,30.42,East,90,0.0,1.6,27,0.00,,,0.00,pywws,2013-01-18 18:25:00,
2013-01-18 13:30:00,50.5,16.9,30.42,SW,225,3.8,5.4,26,0.00,,,0.00,pywws,2013-01-18 18:30:00,
2013-01-18 13:36:00,50.2,18.4,30.42,NW,315,1.6,3.8,28,0.00,,,0.00,pywws,2013-01-18 18:36:00,
2013-01-18 13:42:00,51.8,16.2,30.42,SW,225,2.2,4.5,24,0.00,,,0.00,pywws,2013-01-18 18:42:00,
2013-01-18 13:47:00,53.6,17.7,30.42,NW,315,3.8,6.0,24,0.00,,,0.00,pywws,2013-01-18 18:47:00,
2013-01-18 13:53:00,52.3,18.5,30.41,West,270,0.7,3.8,26,0.00,,,0.00,pywws,2013-01-18 18:53:00,
2013-01-18 13:58:00,54.0,18.0,30.41,East,90,0.7,1.6,24,0.00,,,0.00,pywws,2013-01-18 18:58:00,
2013-01-18 14:04:00,55.2,20.0,30.41,NE,45,1.6,3.8,25,0.00,,,0.00,pywws,2013-01-18 19:04:00,
2013-01-18 14:10:00,54.5,17.5,30.41,NE,45,1.6,2.2,23,0.00,,,0.00,pywws,2013-01-18 19:10:00,
2013-01-18 14:15:00,53.6,17.7,30.41,NE,45,1.6,3.1,24,0.00,,,0.00,pywws,2013-01-18 19:15:00,
2013-01-18 14:21:00,53.6,17.7,30.41,East,90,0.7,2.2,24,0.00,,,0.00,pywws,2013-01-18 19:21:00,
2013-01-18 14:26:00,56.3,23.6,30.40,South,180,0.7,1.6,28,0.00,,,0.00,pywws,2013-01-18 19:26:00,
2013-01-18 14:32:00,57.4,20.9,30.41,NE,45,3.1,3.8,24,0.00,,,0.00,pywws,2013-01-18 19:32:00,
2013-01-18 14:38:00,53.8,16.9,30.40,NE,45,1.6,3.8,23,0.00,,,0.00,pywws,2013-01-18 19:38:00,
2013-01-18 14:43:00,52.2,16.5,30.40,NE,45,1.6,2.2,24,0.00,,,0.00,pywws,2013-01-18 19:43:00,
2013-01-18 14:49:00,52.5,16.8,30.41,NE,45,3.1,3.8,24,0.00,,,0.00,pywws,2013-01-18 19:49:00,
2013-01-18 14:54:00,51.6,17.0,30.41,East,90,1.6,2.2,25,0.00,,,0.00,pywws,2013-01-18 19:54:00,
2013-01-18 15:00:00,52.3,17.6,30.40,NW,315,0.0,1.6,25,0.00,,,0.00,pywws,2013-01-18 20:00:00,
2013-01-18 15:06:00,54.3,17.3,30.40,NE,45,1.6,2.2,23,0.00,,,0.00,pywws,2013-01-18 20:06:00,
2013-01-18 15:11:00,52.2,15.5,30.40,NE,45,2.2,3.8,23,0.00,,,0.00,pywws,2013-01-18 20:11:00,
2013-01-18 15:17:00,54.1,18.2,30.40,North,0,1.6,2.2,24,0.00,,,0.00,pywws,2013-01-18 20:17:00,
2013-01-18 15:22:00,54.7,18.6,30.40,NE,45,0.7,2.2,24,0.00,,,0.00,pywws,2013-01-18 20:22:00,
2013-01-18 15:28:00,55.9,21.6,30.40,NW,315,0.7,1.6,26,0.00,,,0.00,pywws,2013-01-18 20:28:00,
2013-01-18 15:34:00,57.4,20.9,30.41,NE,45,1.6,2.2,24,0.00,,,0.00,pywws,2013-01-18 20:34:00,
2013-01-18 15:39:00,55.4,20.2,30.41,East,90,0.7,1.6,25,0.00,,,0.00,pywws,2013-01-18 20:39:00,
2013-01-18 15:45:00,56.3,20.9,30.41,NE,45,0.7,1.6,25,0.00,,,0.00,pywws,2013-01-18 20:45:00,
2013-01-18 15:50:00,56.5,21.1,30.41,NE,45,0.0,1.6,25,0.00,,,0.00,pywws,2013-01-18 20:50:00,
2013-01-18 15:56:00,56.7,21.2,30.41,NE,45,0.0,0.7,25,0.00,,,0.00,pywws,2013-01-18 20:56:00,
2013-01-18 16:02:00,55.8,20.5,30.41,NW,315,0.0,0.7,25,0.00,,,0.00,pywws,2013-01-18 21:02:00,
2013-01-18 16:07:00,56.7,22.2,30.41,East,90,1.6,2.2,26,0.00,,,0.00,pywws,2013-01-18 21:07:00,
2013-01-18 16:13:00,55.9,20.6,30.41,East,90,1.6,2.2,25,0.00,,,0.00,pywws,2013-01-18 21:13:00,
2013-01-18 16:18:00,56.7,21.2,30.41,NE,45,1.6,2.2,25,0.00,,,0.00,pywws,2013-01-18 21:18:00,
2013-01-18 16:24:00,55.9,20.6,30.41,North,0,0.0,0.0,25,0.00,,,0.00,pywws,2013-01-18 21:24:00,
2013-01-18 16:30:00,55.8,20.5,30.41,North,0,0.0,1.6,25,0.00,,,0.00,pywws,2013-01-18 21:30:00,
2013-01-18 16:35:00,55.2,18.1,30.41,NE,45,2.2,3.1,23,0.00,,,0.00,pywws,2013-01-18 21:35:00,
2013-01-18 16:41:00,54.0,17.0,30.42,NE,45,0.0,1.6,23,0.00,,,0.00,pywws,2013-01-18 21:41:00,
2013-01-18 16:46:00,53.4,18.5,30.42,NE,45,1.6,2.2,25,0.00,,,0.00,pywws,2013-01-18 21:46:00,
2013-01-18 16:53:00,53.8,17.9,30.42,NE,45,0.0,1.6,24,0.00,,,0.00,pywws,2013-01-18 21:53:00,
2013-01-18 16:58:00,52.0,17.3,30.42,NE,45,0.7,1.6,25,0.00,,,0.00,pywws,2013-01-18 21:58:00,
2013-01-18 17:04:00,49.5,18.5,30.42,NE,45,0.7,1.6,29,0.00,,,0.00,pywws,2013-01-18 22:04:00,
2013-01-18 17:10:00,46.9,17.9,30.42,NE,45,2.2,3.1,31,0.00,,,0.00,pywws,2013-01-18 22:10:00,
2013-01-18 17:15:00,45.1,17.1,30.42,NE,45,0.0,1.6,32,0.00,,,0.00,pywws,2013-01-18 22:15:00,
2013-01-18 17:21:00,44.4,17.8,30.42,NE,45,1.6,2.2,34,0.00,,,0.00,pywws,2013-01-18 22:21:00,
2013-01-18 17:26:00,43.7,17.9,30.42,North,0,0.0,0.0,35,0.00,,,0.00,pywws,2013-01-18 22:26:00,
2013-01-18 17:32:00,42.8,17.1,30.42,North,0,0.0,0.0,35,0.00,,,0.00,pywws,2013-01-18 22:32:00,
2013-01-18 17:38:00,42.1,21.2,30.42,SW,225,1.6,2.2,43,0.00,,,0.00,pywws,2013-01-18 22:38:00,
2013-01-18 17:43:00,41.5,20.7,30.42,SW,225,0.7,1.6,43,0.00,,,0.00,pywws,2013-01-18 22:43:00,
2013-01-18 17:49:00,41.4,20.6,30.42,SW,225,0.7,2.2,43,0.00,,,0.00,pywws,2013-01-18 22:49:00,
2013-01-18 17:55:00,40.6,21.5,30.42,SW,225,0.7,1.6,46,0.00,,,0.00,pywws,2013-01-18 22:55:00,
2013-01-18 18:01:00,40.1,21.5,30.43,SW,225,0.7,1.6,47,0.00,,,0.00,pywws,2013-01-18 23:01:00,
2013-01-18 18:06:00,39.9,21.8,30.43,SW,225,0.0,0.0,48,0.00,,,0.00,pywws,2013-01-18 23:06:00,
2013-01-18 18:12:00,39.0,22.4,30.43,North,0,0.0,0.0,51,0.00,,,0.00,pywws,2013-01-18 23:12:00,
2013-01-18 18:18:00,38.1,23.0,30.43,NW,315,0.0,0.0,54,0.00,,,0.00,pywws,2013-01-18 23:18:00,
2013-01-18 18:24:00,38.3,24.0,30.43,SW,225,0.7,1.6,56,0.00,,,0.00,pywws,2013-01-18 23:24:00,
2013-01-18 18:30:00,38.3,24.4,30.43,West,270,0.7,1.6,57,0.00,,,0.00,pywws,2013-01-18 23:30:00,
2013-01-18 18:35:00,37.9,24.5,30.44,West,270,0.7,1.6,58,0.00,,,0.00,pywws,2013-01-18 23:35:00,
2013-01-18 18:41:00,37.6,24.2,30.44,West,270,0.7,1.6,58,0.00,,,0.00,pywws,2013-01-18 23:41:00,
2013-01-18 18:47:00,37.2,23.0,30.44,SW,225,0.7,1.6,56,0.00,,,0.00,pywws,2013-01-18 23:47:00,
2013-01-18 18:53:00,36.9,23.5,30.44,SW,225,0.0,0.0,58,0.00,,,0.00,pywws,2013-01-18 23:53:00,
2013-01-18 18:58:00,36.3,23.0,30.44,SW,225,0.0,0.0,58,0.00,,,0.00,pywws,2013-01-18 23:58:00,
2013-01-18 19:04:00,36.1,22.8,30.45,SW,225,0.0,0.0,58,0.00,,,0.00,pywws,2013-01-19 00:04:00,
2013-01-18 19:10:00,35.2,23.5,30.44,SW,225,0.0,0.0,62,0.00,,,0.00,pywws,2013-01-19 00:10:00,
2013-01-18 19:15:00,35.1,23.8,30.44,SW,225,0.7,1.6,63,0.00,,,0.00,pywws,2013-01-19 00:15:00,
2013-01-18 19:21:00,34.9,24.3,30.44,South,180,0.7,1.6,65,0.00,,,0.00,pywws,2013-01-19 00:21:00,
2013-01-18 19:26:00,35.4,25.2,30.44,SW,225,0.0,0.7,66,0.00,,,0.00,pywws,2013-01-19 00:26:00,
2013-01-18 19:32:00,34.5,24.0,30.44,SW,225,0.0,0.7,65,0.00,,,0.00,pywws,2013-01-19 00:32:00,
2013-01-18 19:38:00,34.3,24.2,30.44,SW,225,0.7,1.6,66,0.00,,,0.00,pywws,2013-01-19 00:38:00,
2013-01-18 19:43:00,33.8,24.0,30.44,SW,225,0.0,0.7,67,0.00,,,0.00,pywws,2013-01-19 00:43:00,
2013-01-18 19:49:00,33.1,24.0,30.44,SW,225,0.0,0.7,69,0.00,,,0.00,pywws,2013-01-19 00:49:00,
2013-01-18 19:55:00,32.7,24.4,30.44,South,180,0.0,0.7,71,0.00,,,0.00,pywws,2013-01-19 00:55:00,
2013-01-18 20:01:00,32.7,24.7,30.44,SW,225,0.0,1.6,72,0.00,,,0.00,pywws,2013-01-19 01:01:00,
2013-01-18 20:06:00,32.5,24.5,30.44,SW,225,0.0,0.7,72,0.00,,,0.00,pywws,2013-01-19 01:06:00,
2013-01-18 20:12:00,32.2,24.5,30.44,SW,225,0.7,1.6,73,0.00,,,0.00,pywws,2013-01-19 01:12:00,
2013-01-18 20:18:00,31.8,24.5,30.44,SW,225,0.0,0.7,74,0.00,,,0.00,pywws,2013-01-19 01:18:00,
2013-01-18 20:24:00,32.0,24.7,30.44,SW,225,0.0,0.7,74,0.00,,,0.00,pywws,2013-01-19 01:24:00,
2013-01-18 20:30:00,31.8,24.5,30.44,SW,225,0.0,0.0,74,0.00,,,0.00,pywws,2013-01-19 01:30:00,
2013-01-18 20:35:00,31.5,24.5,30.44,SW,225,0.7,2.2,75,0.00,,,0.00,pywws,2013-01-19 01:35:00,
2013-01-18 20:41:00,31.5,24.5,30.44,SW,225,0.0,0.0,75,0.00,,,0.00,pywws,2013-01-19 01:41:00,
2013-01-18 20:46:00,30.7,23.8,30.44,NE,45,0.0,0.0,75,0.00,,,0.00,pywws,2013-01-19 01:46:00,
2013-01-18 20:53:00,30.0,23.4,30.44,NE,45,0.0,0.0,76,0.00,,,0.00,pywws,2013-01-19 01:53:00,
2013-01-18 20:59:00,30.0,23.7,30.44,SW,225,0.0,0.0,77,0.00,,,0.00,pywws,2013-01-19 01:59:00,
2013-01-18 21:05:00,30.0,23.7,30.44,SW,225,0.0,0.0,77,0.00,,,0.00,pywws,2013-01-19 02:05:00,
2013-01-18 21:10:00,30.2,23.9,30.44,SW,225,0.0,0.7,77,0.00,,,0.00,pywws,2013-01-19 02:10:00,
2013-01-18 21:16:00,30.6,24.5,30.44,SW,225,1.6,2.2,78,0.00,,,0.00,pywws,2013-01-19 02:16:00,
2013-01-18 21:22:00,30.4,24.4,30.44,SW,225,0.0,0.0,78,0.00,,,0.00,pywws,2013-01-19 02:22:00,
2013-01-18 21:27:00,30.0,24.0,30.44,SW,225,0.0,0.7,78,0.00,,,0.00,pywws,2013-01-19 02:27:00,
2013-01-18 21:33:00,30.0,24.3,30.44,SW,225,0.0,0.0,79,0.00,,,0.00,pywws,2013-01-19 02:33:00,
2013-01-18 21:39:00,29.5,23.8,30.44,NE,45,0.0,0.0,79,0.00,,,0.00,pywws,2013-01-19 02:39:00,
2013-01-18 21:45:00,29.7,24.0,30.44,South,180,1.6,2.2,79,0.00,,,0.00,pywws,2013-01-19 02:45:00,
2013-01-18 21:50:00,30.0,24.3,30.44,NE,45,0.0,0.0,79,0.00,,,0.00,pywws,2013-01-19 02:50:00,
2013-01-18 21:56:00,29.8,24.1,30.44,West,270,0.0,0.7,79,0.00,,,0.00,pywws,2013-01-19 02:56:00,
2013-01-18 22:02:00,30.2,24.2,30.44,NW,315,0.0,0.7,78,0.00,,,0.00,pywws,2013-01-19 03:02:00,
2013-01-18 22:07:00,30.6,24.2,30.44,NW,315,0.0,0.7,77,0.00,,,0.00,pywws,2013-01-19 03:07:00,
2013-01-18 22:14:00,30.4,24.0,30.44,SW,225,0.7,1.6,77,0.00,,,0.00,pywws,2013-01-19 03:14:00,
2013-01-18 22:19:00,30.0,24.0,30.44,South,180,0.0,0.0,78,0.00,,,0.00,pywws,2013-01-19 03:19:00,
2013-01-18 22:25:00,29.7,23.7,30.44,SW,225,0.7,0.7,78,0.00,,,0.00,pywws,2013-01-19 03:25:00,
2013-01-18 22:30:00,29.3,23.3,30.44,SW,225,0.0,0.0,78,0.00,,,0.00,pywws,2013-01-19 03:30:00,
2013-01-18 22:36:00,29.3,23.6,30.44,SW,225,0.7,2.2,79,0.00,,,0.00,pywws,2013-01-19 03:36:00,
2013-01-18 22:42:00,29.1,23.7,30.43,West,270,0.0,0.7,80,0.00,,,0.00,pywws,2013-01-19 03:42:00,
2013-01-18 22:47:00,28.8,23.4,30.43,West,270,0.0,0.0,80,0.00,,,0.00,pywws,2013-01-19 03:47:00,
2013-01-18 22:53:00,28.4,23.0,30.43,NE,45,0.0,0.0,80,0.00,,,0.00,pywws,2013-01-19 03:53:00,
2013-01-18 22:58:00,28.0,21.8,30.43,NE,45,0.0,0.0,77,0.00,,,0.00,pywws,2013-01-19 03:58:00,
2013-01-18 23:06:00,28.0,21.8,30.43,NW,315,0.0,0.0,77,0.00,,,0.00,pywws,2013-01-19 04:06:00,
2013-01-18 23:11:00,28.6,24.1,30.43,NE,45,0.0,0.0,83,0.00,,,0.00,pywws,2013-01-19 04:11:00,
2013-01-18 23:17:00,29.1,24.6,30.42,NE,45,0.0,0.0,83,0.00,,,0.00,pywws,2013-01-19 04:17:00,
2013-01-18 23:24:00,29.5,24.7,30.42,North,0,0.0,0.0,82,0.00,,,0.00,pywws,2013-01-19 04:24:00,
2013-01-18 23:30:00,29.5,24.7,30.42,North,0,0.0,0.0,82,0.00,,,0.00,pywws,2013-01-19 04:30:00,
2013-01-18 23:35:00,29.7,24.6,30.42,North,0,0.0,0.0,81,0.00,,,0.00,pywws,2013-01-19 04:35:00,
2013-01-18 23:41:00,29.8,24.7,30.42,South,180,0.0,0.0,81,0.00,,,0.00,pywws,2013-01-19 04:41:00,
2013-01-18 23:46:00,29.8,24.4,30.42,East,90,0.0,0.0,80,0.00,,,0.00,pywws,2013-01-19 04:46:00,
2013-01-18 23:52:00,30.2,24.2,30.42,ENE,68,0.0,0.0,78,0.00,,,0.00,pywws,2013-01-19 04:52:00,
2013-01-18 23:58:00,30.6,24.2,30.42,NE,45,0.0,0.0,77,0.00,,,0.00,pywws,2013-01-19 04:58:00,